Simultaneous Nadir Overpasses (SNOs) Predictions

Prediction of SNOs between METOP-A and NOAA-19 Satellite Orbit:

Table of predicted SNOs for the next 14.0 days since TLE Epoch: 11/13/2011
Index Date Time (METOP-A) METOP-A Lat,Lon NOAA-19 Lat,Lon Distance(km) Time Diff (sec)
1 11/21/2011 17:25:24 75.37, -83.05 75.40, -94.94 333.08 35
2 11/21/2011 18:16:25 -74.45, 81.65 -74.43, 75.13 194.48 55
3 11/21/2011 19:07:25 73.44,-113.49 73.49,-115.28 56.96 70
4 11/21/2011 19:58:15 -73.04, 52.93 -73.07, 52.93 3.48 67
5 11/21/2011 20:48:55 73.02,-139.78 73.01,-139.71 2.39 44
6 11/21/2011 21:39:37 -73.02, 27.55 -73.04, 27.48 2.80 24
7 11/21/2011 22:30:17 73.00,-165.16 72.97,-165.15 2.69 1
8 11/21/2011 23:21:00 -72.95, 2.06 -72.95, 2.15 2.96 17
9 11/22/2011 00:11:40
